#timestamp,LO_Frequency,Hit,StdDev 
1507366815.0,286046999.1,N
1507366815.9,286046999.1,N
1507366835.8,286046998.7,N
1507366855.6,286047000.9,N
1507366875.4,286047003.7,N
1507366895.3,286047005.1,N
1507366915.1,286047004.8,N
1507366916.0,286047004.8,N
1507366935.8,286047002.3,N
1507366955.7,286046998.1,N
1507366975.5,286047002.8,N
1507366995.3,286047002.8,N
1507367015.2,286046999.3,N
1507367035.9,286046999.3,N
1507367055.7,286046998.0,N
1507367075.5,286046996.0,N
1507367095.4,286046998.5,N
1507367115.2,286046998.7,N
1507367135.0,286046997.2,N
1507367135.9,286046997.2,N
1507367155.8,286046997.9,N
1507367175.6,286046995.1,N
1507367195.4,286046996.6,N
1507367215.3,286046999.6,N
1507367235.1,286046997.0,N
1507367255.8,286046997.4,N
1507367275.7,286047001.0,N
1507367295.5,286047000.7,N
1507367315.3,286047000.0,N
1507367335.2,286047000.5,N
1507367355.9,286047000.7,N
1507367375.7,286046999.4,N
1507367395.6,286046996.7,N
1507367415.4,286046997.2,N
1507367435.2,286046997.3,N
1507367455.0,286046998.7,N
1507367456.0,286046998.7,N
1507367475.8,286046997.8,N
1507367495.6,286046998.5,N
1507367515.4,286046999.0,N
1507367535.3,286047000.9,N
1507367555.1,286047000.7,N
1507367575.8,286046998.2,N
1507367595.7,286046999.0,N
1507367615.5,286046997.0,N
1507367635.3,286046999.0,N
1507367655.2,286047000.3,N
1507367675.9,286047000.6,N
1507367695.7,286046999.3,N
1507367715.6,286047000.0,N
1507367735.4,286046999.6,N
1507367755.2,286046997.6,N
1507367775.1,286046995.6,Y
1507367776.0,286046995.6,P
1507367795.8,286046999.8,N
1507367815.6,286047000.4,N
1507367835.5,286047002.8,N
1507367855.3,286047001.8,N
1507367875.1,286046999.9,N
1507367895.8,286047001.0,N
1507367915.7,286047000.1,N
1507367935.5,286047002.7,N
1507367955.3,286046998.8,N
1507367975.2,286046998.3,N
1507367995.0,286046997.1,N
1507367995.9,286046997.1,N
1507368015.7,286046997.5,N
1507368035.6,286046996.6,N
1507368055.4,286046999.6,N
1507368075.2,286046999.0,N
1507368095.1,286046999.8,N
1507368096.0,286046999.8,N
1507368115.8,286047001.8,N
1507368135.6,286047003.2,N
1507368155.5,286047002.2,N
1507368175.3,286047002.2,N
1507368195.1,286046999.5,N
1507368215.9,286046996.7,N
1507368235.7,286047003.8,N
1507368255.5,286047002.2,N
1507368275.4,286047003.9,N
1507368295.2,286047000.1,N
1507368315.0,286047004.3,N
1507368315.9,286047004.3,N
1507368335.7,286047005.8,N
1507368355.6,286047005.6,N
1507368375.4,286047002.1,N
1507368395.2,286046996.7,N
1507368415.1,286046998.4,N
1507368416.0,286046998.4,N
1507368435.8,286046998.2,N
1507368455.6,286047002.4,N
1507368475.5,286047002.4,N
1507368495.3,286047001.0,N
1507368515.1,286047002.6,N
1507368535.9,286047001.1,N
1507368555.7,286046998.7,N
1507368575.5,286046999.4,N
1507368595.4,286047000.6,N
1507368615.2,286047000.8,N
1507368635.0,286047004.2,N
1507368635.9,286047004.2,N
1507368655.8,286047003.8,N
1507368675.6,286047001.7,N
1507368695.4,286047005.9,N
1507368715.2,286047007.0,N
1507368735.1,286047010.4,Y
1507368736.0,286047010.4,P
1507368755.8,286047007.3,N
1507368775.7,286047009.0,N
1507368795.5,286047005.7,N
1507368815.3,286047001.7,N
1507368835.1,286047006.5,N
1507368855.9,286047007.4,N
1507368875.7,286047007.9,N
1507368895.5,286047004.5,N
1507368915.4,286047007.6,N
1507368935.2,286047005.4,N
1507368955.0,286047007.6,Y
1507368955.9,286047007.6,P
1507368975.8,286046999.8,N
1507368995.6,286047001.8,N
1507369015.4,286046999.8,N
1507369035.3,286046998.3,N
1507369055.1,286046999.1,N
1507369056.0,286046999.1,N
1507369075.8,286047000.1,N
1507369095.7,286047003.3,N
1507369115.5,286047003.4,N
1507369135.3,286047003.0,N
1507369155.2,286047001.5,N
1507369175.9,286047002.2,N
1507369195.7,286047001.1,N
1507369215.5,286047000.7,N
1507369235.4,286046996.9,N
1507369255.2,286046995.4,N
1507369275.0,286046999.2,N
1507369275.9,286046999.2,N
1507369295.8,286046999.5,N
1507369315.6,286046999.2,N
1507369335.4,286046998.7,N
1507369355.3,286046998.9,N
1507369375.1,286046995.0,N
1507369376.0,286046995.0,N
1507369395.8,286046998.5,N
1507369415.7,286046999.8,N
1507369435.5,286046998.8,N
1507369455.3,286046996.9,N
1507369475.2,286046996.2,N
1507369495.9,286046998.0,N
1507369515.7,286046997.6,N
1507369535.5,286046993.6,N
1507369555.4,286046998.8,N
1507369575.2,286046997.4,N
1507369595.0,286047000.0,N
1507369595.9,286047000.0,N
1507369615.8,286047000.6,N
1507369635.6,286046998.4,N
1507369655.4,286046997.0,N
1507369675.3,286046998.7,N
1507369695.1,286046997.3,N
1507369715.8,286047000.8,N
1507369735.7,286046994.9,N
1507369755.5,286046999.0,N
1507369775.3,286046998.5,N
1507369795.2,286046999.6,N
1507369815.9,286046997.7,N
1507369835.7,286046992.5,Y
1507369855.6,286046996.1,P
1507369875.4,286046994.5,P
1507369895.2,286046993.1,P
1507369915.1,286046992.1,Y
1507369916.0,286046992.1,P
1507369935.8,286046998.5,N
1507369955.6,286046995.4,N
1507369975.5,286046997.4,N
1507369995.3,286046996.8,N
1507370015.1,286046995.0,N
1507370035.9,286046996.3,N
1507370055.7,286046994.3,Y
1507370075.5,286046998.7,P
1507370095.4,286046996.9,N
1507370115.2,286046995.2,P
1507370135.0,286046995.5,Y
1507370135.9,286046995.5,P
1507370155.8,286046995.9,P
1507370175.6,286046990.8,P
1507370195.4,286046995.5,N
1507370215.3,286047000.5,N
1507370235.1,286047001.7,N
1507370236.0,286047001.7,N
1507370255.8,286047001.3,N
1507370275.7,286047004.0,N
1507370295.5,286047001.7,N
1507370315.3,286047004.2,N
1507370335.2,286047002.4,N
1507370355.9,286047005.3,N
1507370375.7,286047003.1,N
1507370395.5,286047006.0,N
